This is the latest recevied weather packets stored in our database for station/object WE1C. If no packets are shown the sender has not sent any weather packets the latest 10 day(s).
| Time | Temp. | Humidity | Pressure | Rain* | Wind** | Luminosity | Snow |
|---|---|---|---|---|---|---|---|
| 1777818446 | 6.11° C | 70% | 1036 hPa | 0 mm | - | 158 W/m² | - |
| 1777818143 | 6.67° C | 70% | 1035.9 hPa | 0 mm | - | 150 W/m² | - |
| 1777817839 | 6.67° C | 70% | 1035.9 hPa | 0 mm | - | 163 W/m² | - |
| 1777817537 | 6.67° C | 71% | 1036 hPa | 0 mm | - | 152 W/m² | - |
| 1777817233 | 6.67° C | 69% | 1036 hPa | 0 mm | - | 178 W/m² | - |
| 1777816931 | 6.67° C | 69% | 1036.2 hPa | 0 mm | - | 271 W/m² | - |
| 1777816627 | 6.67° C | 69% | 1035.8 hPa | 0 mm | - | 331 W/m² | - |
| 1777816324 | 7.22° C | 69% | 1036 hPa | 0 mm | - | 306 W/m² | - |
| 1777816021 | 7.22° C | 68% | 1036 hPa | 0 mm | - | 446 W/m² | - |
| 1777815719 | 6.67° C | 72% | 1036.1 hPa | 0 mm | - | 347 W/m² | - |
| 1777815416 | 6.67° C | 71% | 1036.1 hPa | 0 mm | - | 363 W/m² | - |
| 1777815113 | 6.11° C | 71% | 1036.1 hPa | 0 mm | - | 217 W/m² | - |
| 1777814809 | 6.67° C | 71% | 1036 hPa | 0 mm | - | 150 W/m² | - |
| 1777814506 | 6.11° C | 72% | 1036 hPa | 0 mm | - | 167 W/m² | - |
| 1777814203 | 6.11° C | 72% | 1036 hPa | 0 mm | - | 134 W/m² | - |
| 1777813900 | 6.11° C | 72% | 1036.1 hPa | 0 mm | - | 126 W/m² | - |
| 1777813598 | 6.11° C | 71% | 1036.1 hPa | 0 mm | - | 154 W/m² | - |
| 1777813295 | 6.11° C | 72% | 1035.9 hPa | 0 mm | - | 222 W/m² | - |
| 1777812992 | 6.11° C | 73% | 1036.2 hPa | 0 mm | - | 159 W/m² | - |
| 1777812690 | 6.11° C | 73% | 1036 hPa | 0 mm | - | 161 W/m² | - |
| 1777812386 | 6.11° C | 73% | 1035.9 hPa | 0 mm | - | 198 W/m² | - |
| 1777812085 | 5.56° C | 73% | 1035.9 hPa | 0 mm | - | 170 W/m² | - |
| 1777811783 | 5.56° C | 74% | 1036.3 hPa | 0 mm | - | 178 W/m² | - |
| 1777811479 | 6.11° C | 74% | 1035.9 hPa | 0 mm | - | 128 W/m² | - |
| 1777811175 | 5.56° C | 74% | 1036.1 hPa | 0 mm | - | 165 W/m² | - |
* Rain latest hour (hover to see other rain measurements)
** Current wind speed in m/s (hover to see current wind gust speed)